QPF
0.01 0.01 0.01 0.02 0.02 0.02 0.03 0.02 0.03 0.03 0.03 0.04 0.03 0.03 0.04 0.03 0.03 0.02 0.02 0.05 0.10 0.12 0.14 0.17 0.16 0.12 0.10 0.07 0.04 0.04 0.03 0.01 0.01 0.01 0.02 0.02 0.02 0.01 0.00 0.00 0.00 0.00 0.00
0.00 0.00 0.01 0.01 0.01 0.02 0.02 0.02 0.03 0.03 0.03 0.04 0.04 0.04 0.04 0.03 0.03 0.02 0.02 0.03 0.08 0.11 0.13 0.18 0.20 0.19 0.16 0.12 0.08 0.06 0.04 0.03 0.02 0.01 0.01 0.02 0.02 0.01 0.01 0.00 0.00 0.00 0.00
0.00 0.00 0.00 0.00 0.01 0.01 0.01 0.01 0.01 0.01 0.02 0.04 0.04 0.03 0.03 0.03 0.03 0.03 0.03 0.03 0.04 0.09 0.13 0.16 0.20 0.22 0.24 0.24 0.17 0.12 0.09 0.06 0.03 0.02 0.02 0.01 0.01 0.01 0.01 0.01 0.00 0.00 0.00
0.00 0.00 0.00 0.00 0.00 0.00 0.01 0.01 0.01 0.01 0.01 0.02 0.02 0.03 0.03 0.04 0.04 0.03 0.03 0.03 0.03 0.04 0.09 0.16 0.19 0.22 0.26 0.25 0.26 0.22 0.17 0.12 0.08 0.05 0.03 0.02 0.02 0.01 0.01 0.01 0.00 0.00 0.00
0.00 0.00 0.00 0.00 0.00 0.00 0.00 0.00 0.00 0.00 0.00 0.00 0.00 0.01 0.01 0.02 0.02 0.03 0.02 0.02 0.02 0.03 0.06 0.10 0.16 0.20 0.27 0.30 0.29 0.30 0.23 0.18 0.14 0.10 0.06 0.03 0.02 0.02 0.01 0.01 0.00 0.00 0.00
0.00 0.00 0.00 0.00 0.00 0.00 0.00 0.00 0.00 0.00 0.00 0.00 0.00 0.00 0.00 0.00 0.00 0.01 0.02 0.01 0.01 0.03 0.04 0.04 0.06 0.09 0.17 0.25 0.28 0.30 0.28 0.23 0.19 0.15 0.11 0.06 0.03 0.02 0.01 0.01 0.01 0.00 0.00
0.00 0.00 0.00 0.00 0.00 0.00 0.00 0.00 0.00 0.00 0.00 0.00 0.00 0.00 0.00 0.00 0.00 0.00 0.00 0.01 0.01 0.02 0.02 0.02 0.03 0.05 0.06 0.12 0.16 0.22 0.26 0.26 0.24 0.21 0.16 0.12 0.08 0.05 0.03 0.01 0.01 0.01 0.00
0.00 0.00 0.00 0.00 0.00 0.00 0.00 0.00 0.00 0.00 0.00 0.00 0.00 0.00 0.00 0.00 0.00 0.00 0.00 0.00 0.00 0.01 0.01 0.02 0.02 0.04 0.05 0.05 0.07 0.15 0.23 0.26 0.28 0.28 0.24 0.19 0.17 0.13 0.07 0.04 0.02 0.01 0.01
0.00 0.00 0.00 0.00 0.00 0.00 0.00 0.00 0.00 0.00 0.00 0.00 0.00 0.00 0.00 0.00 0.00 0.00 0.00 0.00 0.00 0.01 0.01 0.01 0.02 0.03 0.04 0.04 0.04 0.08 0.16 0.21 0.25 0.27 0.27 0.23 0.20 0.16 0.12 0.08 0.05 0.03 0.01
0.00 0.00 0.00 0.00 0.00 0.00 0.00 0.00 0.00 0.00 0.00 0.00 0.00 0.00 0.00 0.00 0.00 0.00 0.00 0.00 0.00 0.00 0.00 0.01 0.01 0.01 0.02 0.02 0.03 0.04 0.08 0.12 0.19 0.25 0.26 0.24 0.23 0.21 0.16 0.13 0.12 0.08 0.04
0.00 0.00 0.00 0.00 0.00 0.00 0.00 0.00 0.00 0.00 0.00 0.00 0.00 0.00 0.00 0.00 0.00 0.00 0.00 0.00 0.00 0.00 0.00 0.00 0.00 0.00 0.01 0.01 0.02 0.02 0.04 0.06 0.09 0.14 0.17 0.20 0.21 0.22 0.21 0.20 0.18 0.15 0.11
0.00 0.00 0.00 0.00 0.00 0.00 0.00 0.00 0.00 0.00 0.00 0.00 0.00 0.00 0.00 0.00 0.00 0.00 0.00 0.00 0.00 0.00 0.00 0.00 0.00 0.00 0.00 0.01 0.02 0.03 0.04 0.04 0.05 0.07 0.10 0.13 0.15 0.17 0.18 0.21 0.24 0.21 0.16
0.00 0.00 0.00 0.00 0.00 0.00 0.00 0.00 0.00 0.00 0.00 0.00 0.00 0.00 0.00 0.00 0.00 0.00 0.00 0.00 0.00 0.00 0.00 0.00 0.00 0.00 0.00 0.00 0.01 0.02 0.04 0.04 0.04 0.04 0.05 0.08 0.11 0.14 0.16 0.16 0.19 0.23 0.21
0.00 0.00 0.00 0.00 0.00 0.00 0.00 0.00 0.00 0.00 0.00 0.00 0.00 0.00 0.00 0.00 0.00 0.00 0.00 0.00 0.00 0.00 0.00 0.00 0.00 0.00 0.00 0.00 0.01 0.01 0.02 0.04 0.04 0.03 0.03 0.04 0.07 0.10 0.12 0.13 0.14 0.17 0.20
0.00 0.00 0.00 0.00 0.00 0.00 0.00 0.00 0.00 0.00 0.00 0.00 0.00 0.00 0.00 0.00 0.00 0.00 0.00 0.00 0.00 0.00 0.00 0.00 0.00 0.00 0.00 0.00 0.00 0.00 0.00 0.01 0.02 0.03 0.02 0.02 0.03 0.05 0.07 0.09 0.10 0.11 0.13
0.00 0.00 0.00 0.00 0.00 0.00 0.00 0.00 0.00 0.00 0.00 0.00 0.00 0.00 0.00 0.00 0.00 0.00 0.00 0.00 0.00 0.00 0.00 0.00 0.00 0.00 0.00 0.00 0.00 0.00 0.00 0.00 0.00 0.00 0.01 0.01 0.01 0.02 0.03 0.05 0.06 0.08 0.09
0.00 0.00 0.00 0.00 0.00 0.00 0.00 0.00 0.00 0.00 0.00 0.00 0.00 0.00 0.00 0.00 0.00 0.00 0.00 0.00 0.00 0.00 0.00 0.00 0.00 0.00 0.00 0.00 0.00 0.00 0.00 0.00 0.00 0.00 0.00 0.00 0.00 0.00 0.01 0.01 0.03 0.04 0.05
0.00 0.00 0.00 0.00 0.00 0.00 0.00 0.00 0.00 0.00 0.00 0.00 0.00 0.00 0.00 0.00 0.00 0.00 0.00 0.00 0.00 0.00 0.00 0.00 0.00 0.00 0.00 0.00 0.00 0.00 0.00 0.00 0.00 0.00 0.00 0.00 0.00 0.00 0.00 0.00 0.01 0.02 0.03
0.00 0.00 0.00 0.00 0.00 0.00 0.00 0.00 0.00 0.00 0.00 0.00 0.00 0.00 0.00 0.00 0.00 0.00 0.00 0.00 0.00 0.00 0.00 0.00 0.00 0.00 0.00 0.00 0.00 0.00 0.00 0.00 0.00 0.00 0.00 0.00 0.00 0.00 0.00 0.00 0.01 0.01 0.01
0.00 0.00 0.00 0.00 0.00 0.00 0.00 0.00 0.00 0.00 0.00 0.00 0.00 0.00 0.00 0.00 0.00 0.00 0.00 0.00 0.00 0.00 0.00 0.00 0.00 0.00 0.00 0.00 0.00 0.00 0.00 0.00 0.00 0.00 0.00 0.00 0.00 0.00 0.00 0.00 0.00 0.00 0.01
0.00 0.00 0.00 0.00 0.00 0.00 0.00 0.00 0.00 0.00 0.00 0.00 0.00 0.00 0.00 0.00 0.00 0.00 0.00 0.00 0.00 0.00 0.00 0.00 0.00 0.00 0.00 0.00 0.00 0.00 0.00 0.00 0.00 0.00 0.00 0.00 0.00 0.00 0.00 0.00 0.00 0.00 0.01
0.00 0.00 0.00 0.00 0.00 0.00 0.00 0.00 0.00 0.00 0.00 0.00 0.00 0.00 0.00 0.00 0.00 0.00 0.00 0.00 0.00 0.00 0.00 0.00 0.00 0.00 0.00 0.00 0.00 0.00 0.00 0.00 0.00 0.00 0.00 0.00 0.00 0.00 0.00 0.00 0.00 0.01 0.01
0.00 0.00 0.00 0.00 0.00 0.00 0.00 0.00 0.00 0.00 0.00 0.00 0.00 0.00 0.00 0.00 0.00 0.00 0.00 0.00 0.00 0.00 0.00 0.00 0.00 0.00 0.00 0.00 0.00 0.00 0.00 0.00 0.00 0.00 0.00 0.00 0.00 0.00 0.00 0.00 0.00 0.00 0.01
0.00 0.00 0.00 0.00 0.00 0.00 0.00 0.00 0.00 0.00 0.00 0.00 0.00 0.00 0.00 0.00 0.00 0.00 0.00 0.00 0.00 0.00 0.00 0.00 0.00 0.00 0.00 0.00 0.00 0.00 0.00 0.00 0.00 0.00 0.00 0.00 0.00 0.00 0.00 0.00 0.00 0.00 0.00
0.00 0.00 0.00 0.00 0.00 0.00 0.00 0.00 0.00 0.00 0.00 0.00 0.00 0.00 0.00 0.00 0.00 0.00 0.00 0.00 0.00 0.00 0.00 0.00 0.00 0.00 0.00 0.00 0.00 0.00 0.00 0.00 0.00 0.00 0.00 0.00 0.00 0.00 0.00 0.00 0.00 0.00 0.00
0.01 0.01 0.01 0.01 0.01 0.00 0.00 0.00 0.00 0.00 0.00 0.00 0.00 0.00 0.00 0.00 0.00 0.00 0.00 0.00 0.00 0.00 0.00 0.00 0.00 0.00 0.00 0.00 0.00 0.00 0.00 0.00 0.00 0.00 0.00 0.00 0.00 0.00 0.00 0.00 0.00 0.00 0.00
MSLP
1018.30 1018.26 1018.15 1018.01 1017.87 1017.77 1017.73 1017.76 1017.85 1017.99 1018.13 1018.25 1018.32 1018.33 1018.29 1018.20 1018.10 1018.01 1017.96 1017.94 1017.98 1018.06 1018.18 1018.34 1018.54 1018.78 1019.05 1019.37 1019.72 1020.10 1020.49 1020.89 1021.27 1021.63 1021.94 1022.21 1022.45 1022.65 1022.84 1023.01 1023.18 1023.36 1023.54
1018.48 1018.42 1018.31 1018.16 1018.02 1017.92 1017.88 1017.91 1018.00 1018.14 1018.29 1018.41 1018.49 1018.50 1018.45 1018.35 1018.22 1018.08 1017.97 1017.90 1017.89 1017.93 1018.02 1018.16 1018.35 1018.59 1018.86 1019.17 1019.52 1019.90 1020.30 1020.71 1021.11 1021.48 1021.82 1022.13 1022.39 1022.62 1022.81 1022.99 1023.16 1023.32 1023.49
1018.63 1018.58 1018.48 1018.36 1018.24 1018.16 1018.13 1018.16 1018.25 1018.38 1018.52 1018.63 1018.70 1018.70 1018.64 1018.51 1018.34 1018.17 1018.00 1017.87 1017.80 1017.78 1017.83 1017.94 1018.11 1018.32 1018.58 1018.88 1019.21 1019.58 1019.98 1020.39 1020.80 1021.20 1021.57 1021.91 1022.21 1022.46 1022.68 1022.88 1023.05 1023.23 1023.40
1018.73 1018.71 1018.65 1018.58 1018.51 1018.46 1018.46 1018.50 1018.58 1018.69 1018.80 1018.89 1018.94 1018.92 1018.83 1018.68 1018.48 1018.27 1018.05 1017.87 1017.73 1017.66 1017.65 1017.71 1017.83 1018.00 1018.23 1018.50 1018.81 1019.16 1019.54 1019.95 1020.37 1020.79 1021.19 1021.56 1021.89 1022.18 1022.44 1022.66 1022.87 1023.07 1023.27
1018.79 1018.81 1018.81 1018.80 1018.80 1018.80 1018.83 1018.88 1018.95 1019.03 1019.11 1019.17 1019.18 1019.14 1019.03 1018.86 1018.64 1018.40 1018.15 1017.92 1017.73 1017.59 1017.52 1017.52 1017.57 1017.69 1017.86 1018.09 1018.36 1018.68 1019.04 1019.43 1019.84 1020.27 1020.69 1021.09 1021.46 1021.79 1022.09 1022.35 1022.59 1022.83 1023.06
1018.81 1018.87 1018.94 1019.00 1019.07 1019.13 1019.19 1019.25 1019.32 1019.37 1019.42 1019.43 1019.42 1019.36 1019.24 1019.07 1018.84 1018.59 1018.32 1018.05 1017.82 1017.63 1017.49 1017.42 1017.40 1017.45 1017.55 1017.72 1017.93 1018.20 1018.52 1018.88 1019.28 1019.70 1020.13 1020.54 1020.94 1021.30 1021.64 1021.94 1022.23 1022.50 1022.78
1018.79 1018.89 1019.02 1019.16 1019.29 1019.41 1019.51 1019.59 1019.64 1019.68 1019.69 1019.68 1019.65 1019.58 1019.46 1019.30 1019.10 1018.85 1018.58 1018.31 1018.04 1017.80 1017.60 1017.45 1017.36 1017.33 1017.36 1017.44 1017.59 1017.80 1018.06 1018.38 1018.74 1019.14 1019.55 1019.97 1020.37 1020.75 1021.11 1021.45 1021.76 1022.08 1022.39
1018.75 1018.88 1019.06 1019.25 1019.44 1019.62 1019.75 1019.85 1019.90 1019.93 1019.92 1019.90 1019.87 1019.80 1019.71 1019.59 1019.42 1019.20 1018.95 1018.68 1018.39 1018.12 1017.86 1017.65 1017.48 1017.36 1017.31 1017.31 1017.38 1017.51 1017.71 1017.97 1018.28 1018.63 1019.01 1019.41 1019.80 1020.17 1020.54 1020.88 1021.22 1021.55 1021.90
1018.70 1018.84 1019.04 1019.28 1019.52 1019.74 1019.91 1020.02 1020.09 1020.11 1020.10 1020.09 1020.06 1020.03 1019.98 1019.90 1019.78 1019.61 1019.39 1019.13 1018.84 1018.55 1018.25 1017.98 1017.74 1017.54 1017.40 1017.33 1017.31 1017.36 1017.49 1017.67 1017.92 1018.21 1018.54 1018.89 1019.24 1019.59 1019.93 1020.27 1020.61 1020.95 1021.30
1018.64 1018.78 1019.00 1019.26 1019.53 1019.77 1019.97 1020.10 1020.18 1020.22 1020.22 1020.23 1020.23 1020.23 1020.22 1020.20 1020.13 1020.01 1019.84 1019.61 1019.33 1019.02 1018.70 1018.38 1018.08 1017.82 1017.61 1017.46 1017.36 1017.34 1017.38 1017.49 1017.66 1017.88 1018.14 1018.43 1018.73 1019.03 1019.34 1019.64 1019.95 1020.28 1020.62
1018.57 1018.71 1018.92 1019.19 1019.47 1019.73 1019.94 1020.09 1020.19 1020.24 1020.27 1020.29 1020.33 1020.37 1020.41 1020.43 1020.42 1020.36 1020.22 1020.03 1019.77 1019.46 1019.13 1018.78 1018.45 1018.14 1017.87 1017.65 1017.49 1017.39 1017.35 1017.38 1017.48 1017.62 1017.81 1018.03 1018.27 1018.52 1018.77 1019.03 1019.30 1019.59 1019.90
1018.50 1018.62 1018.82 1019.08 1019.36 1019.62 1019.83 1019.99 1020.10 1020.17 1020.22 1020.27 1020.33 1020.41 1020.49 1020.56 1020.59 1020.57 1020.48 1020.32 1020.08 1019.79 1019.46 1019.11 1018.76 1018.42 1018.11 1017.84 1017.63 1017.47 1017.36 1017.32 1017.34 1017.42 1017.53 1017.69 1017.86 1018.05 1018.25 1018.46 1018.68 1018.92 1019.19
1018.42 1018.52 1018.71 1018.95 1019.20 1019.45 1019.66 1019.82 1019.93 1020.00 1020.07 1020.13 1020.22 1020.32 1020.42 1020.52 1020.59 1020.61 1020.55 1020.43 1020.23 1019.97 1019.66 1019.32 1018.97 1018.62 1018.30 1018.00 1017.74 1017.53 1017.38 1017.27 1017.23 1017.24 1017.30 1017.39 1017.51 1017.65 1017.80 1017.97 1018.14 1018.33 1018.54
1018.32 1018.42 1018.58 1018.79 1019.02 1019.24 1019.43 1019.57 1019.68 1019.75 1019.82 1019.89 1019.98 1020.09 1020.21 1020.33 1020.42 1020.46 1020.44 1020.35 1020.19 1019.96 1019.69 1019.39 1019.06 1018.73 1018.41 1018.10 1017.82 1017.58 1017.37 1017.22 1017.12 1017.08 1017.09 1017.13 1017.21 1017.31 1017.43 1017.55 1017.68 1017.82 1017.98
1018.22 1018.30 1018.44 1018.62 1018.81 1019.00 1019.15 1019.27 1019.36 1019.43 1019.48 1019.55 1019.64 1019.74 1019.86 1019.98 1020.08 1020.14 1020.15 1020.09 1019.98 1019.81 1019.59 1019.33 1019.05 1018.75 1018.44 1018.14 1017.85 1017.58 1017.35 1017.15 1017.01 1016.92 1016.89 1016.90 1016.95 1017.02 1017.11 1017.20 1017.30 1017.40 1017.50
1018.10 1018.18 1018.29 1018.43 1018.59 1018.74 1018.86 1018.95 1019.02 1019.07 1019.11 1019.16 1019.23 1019.33 1019.44 1019.55 1019.65 1019.72 1019.74 1019.72 1019.65 1019.53 1019.37 1019.17 1018.94 1018.68 1018.41 1018.12 1017.83 1017.55 1017.29 1017.07 1016.89 1016.77 1016.70 1016.68 1016.70 1016.75 1016.82 1016.89 1016.96 1017.02 1017.08
1017.96 1018.03 1018.12 1018.24 1018.36 1018.48 1018.57 1018.64 1018.68 1018.71 1018.73 1018.76 1018.82 1018.89 1018.98 1019.08 1019.17 1019.24 1019.28 1019.29 1019.25 1019.18 1019.07 1018.93 1018.75 1018.54 1018.31 1018.05 1017.77 1017.49 1017.22 1016.97 1016.75 1016.60 1016.49 1016.44 1016.44 1016.47 1016.52 1016.57 1016.61 1016.65 1016.67
1017.77 1017.84 1017.93 1018.03 1018.13 1018.23 1018.30 1018.35 1018.37 1018.38 1018.38 1018.40 1018.43 1018.48 1018.55 1018.62 1018.70 1018.76 1018.81 1018.83 1018.82 1018.78 1018.72 1018.62 1018.50 1018.34 1018.14 1017.91 1017.65 1017.38 1017.10 1016.83 1016.59 1016.40 1016.26 1016.17 1016.14 1016.13 1016.16 1016.18 1016.20 1016.21 1016.20
1017.51 1017.59 1017.68 1017.78 1017.89 1017.98 1018.04 1018.08 1018.09 1018.09 1018.08 1018.08 1018.09 1018.12 1018.16 1018.21 1018.26 1018.31 1018.35 1018.36 1018.37 1018.35 1018.31 1018.25 1018.16 1018.04 1017.88 1017.69 1017.45 1017.19 1016.91 1016.64 1016.38 1016.16 1015.98 1015.85 1015.77 1015.73 1015.71 1015.71 1015.69 1015.67 1015.63
1017.15 1017.25 1017.37 1017.49 1017.61 1017.71 1017.78 1017.82 1017.83 1017.82 1017.80 1017.79 1017.78 1017.79 1017.80 1017.83 1017.85 1017.88 1017.89 1017.89 1017.89 1017.87 1017.84 1017.80 1017.73 1017.64 1017.51 1017.34 1017.14 1016.90 1016.64 1016.37 1016.10 1015.86 1015.65 1015.48 1015.35 1015.26 1015.19 1015.13 1015.08 1015.02 1014.96
1016.68 1016.83 1016.98 1017.14 1017.28 1017.40 1017.48 1017.52 1017.54 1017.52 1017.50 1017.48 1017.46 1017.44 1017.44 1017.44 1017.44 1017.44 1017.42 1017.40 1017.37 1017.33 1017.29 1017.24 1017.18 1017.10 1017.00 1016.86 1016.70 1016.49 1016.26 1016.00 1015.74 1015.49 1015.25 1015.05 1014.87 1014.72 1014.60 1014.49 1014.39 1014.29 1014.20
1016.12 1016.31 1016.51 1016.70 1016.87 1017.01 1017.10 1017.15 1017.16 1017.15 1017.12 1017.09 1017.06 1017.04 1017.02 1017.00 1016.99 1016.95 1016.91 1016.85 1016.78 1016.71 1016.64 1016.58 1016.51 1016.44 1016.35 1016.25 1016.12 1015.95 1015.76 1015.54 1015.30 1015.06 1014.81 1014.58 1014.36 1014.16 1013.97 1013.81 1013.66 1013.52 1013.40
1015.50 1015.73 1015.97 1016.19 1016.38 1016.52 1016.62 1016.66 1016.66 1016.64 1016.60 1016.56 1016.53 1016.51 1016.49 1016.47 1016.44 1016.40 1016.33 1016.24 1016.14 1016.03 1015.93 1015.83 1015.74 1015.67 1015.59 1015.51 1015.42 1015.31 1015.16 1014.99 1014.79 1014.57 1014.33 1014.09 1013.84 1013.60 1013.37 1013.16 1012.96 1012.79 1012.64
1014.85 1015.12 1015.38 1015.61 1015.80 1015.93 1016.00 1016.02 1016.00 1015.96 1015.90 1015.86 1015.83 1015.82 1015.82 1015.81 1015.79 1015.75 1015.68 1015.58 1015.45 1015.31 1015.17 1015.04 1014.93 1014.84 1014.76 1014.70 1014.65 1014.58 1014.49 1014.38 1014.23 1014.04 1013.83 1013.59 1013.34 1013.07 1012.81 1012.56 1012.32 1012.11 1011.94
1014.25 1014.53 1014.79 1015.01 1015.16 1015.25 1015.28 1015.25 1015.19 1015.11 1015.04 1014.99 1014.97 1014.98 1015.00 1015.03 1015.04 1015.03 1014.97 1014.87 1014.74 1014.58 1014.41 1014.25 1014.11 1014.00 1013.92 1013.87 1013.84 1013.81 1013.77 1013.71 1013.62 1013.48 1013.30 1013.09 1012.84 1012.57 1012.29 1012.02 1011.76 1011.53 1011.34
1013.74 1014.00 1014.23 1014.40 1014.50 1014.52 1014.48 1014.39 1014.27 1014.15 1014.05 1013.99 1013.98 1014.02 1014.08 1014.15 1014.21 1014.24 1014.21 1014.14 1014.02 1013.85 1013.67 1013.49 1013.33 1013.20 1013.11 1013.06 1013.04 1013.03 1013.03 1013.01 1012.96 1012.87 1012.74 1012.56 1012.33 1012.07 1011.79 1011.51 1011.24 1011.00 1010.80
Thickness
5718 5717 5715 5715 5715 5714 5714 5713 5712 5712 5712 5712 5713 5713 5713 5714 5715 5715 5716 5717 5718 5719 5719 5718 5717 5717 5716 5716 5715 5714 5714 5714 5714 5713 5713 5713 5712 5712 5711 5711 5711 5710 5710
5715 5714 5712 5711 5711 5710 5710 5709 5709 5708 5708 5708 5709 5709 5710 5710 5711 5712 5713 5714 5715 5716 5717 5716 5716 5715 5715 5714 5713 5713 5712 5712 5712 5712 5712 5712 5711 5711 5710 5710 5710 5710 5709
5712 5710 5709 5708 5707 5707 5707 5706 5705 5705 5705 5705 5705 5706 5707 5707 5708 5709 5710 5711 5712 5713 5714 5714 5714 5713 5712 5711 5711 5711 5711 5710 5711 5710 5711 5710 5710 5710 5709 5709 5709 5709 5708
5709 5707 5706 5705 5704 5704 5704 5703 5702 5701 5700 5701 5702 5703 5704 5704 5705 5706 5707 5708 5709 5710 5712 5712 5712 5711 5710 5709 5709 5709 5709 5709 5709 5709 5709 5709 5709 5709 5708 5708 5708 5708 5707
5706 5705 5703 5702 5701 5701 5700 5700 5698 5697 5697 5697 5699 5700 5700 5700 5702 5703 5705 5706 5707 5707 5708 5709 5709 5709 5708 5708 5708 5707 5707 5707 5707 5707 5708 5708 5708 5708 5708 5707 5707 5707 5707
5704 5702 5701 5699 5699 5698 5697 5696 5695 5694 5693 5694 5696 5696 5696 5697 5698 5699 5701 5703 5704 5704 5705 5706 5706 5706 5707 5707 5707 5706 5706 5706 5706 5706 5706 5707 5707 5707 5707 5707 5707 5706 5706
5702 5700 5698 5697 5696 5695 5693 5693 5692 5690 5690 5690 5691 5690 5691 5693 5693 5694 5696 5698 5699 5700 5701 5702 5703 5703 5704 5705 5705 5705 5705 5704 5705 5705 5705 5706 5706 5706 5706 5706 5706 5706 5705
5701 5699 5697 5695 5693 5692 5690 5690 5689 5687 5685 5685 5684 5683 5681 5683 5686 5688 5689 5691 5692 5694 5695 5697 5698 5699 5700 5701 5702 5703 5703 5703 5703 5703 5704 5704 5704 5705 5705 5705 5705 5705 5705
5700 5698 5695 5693 5691 5690 5688 5686 5685 5684 5681 5680 5679 5678 5675 5673 5675 5680 5681 5683 5685 5686 5688 5690 5692 5693 5695 5696 5698 5699 5700 5700 5701 5701 5701 5702 5702 5703 5704 5704 5704 5704 5704
5699 5697 5695 5692 5690 5688 5686 5684 5682 5680 5678 5676 5675 5673 5672 5671 5669 5670 5674 5676 5678 5679 5681 5683 5685 5687 5689 5691 5692 5694 5695 5697 5698 5699 5699 5699 5700 5701 5701 5702 5702 5703 5703
5698 5696 5694 5691 5688 5686 5684 5681 5679 5677 5675 5673 5671 5669 5667 5665 5664 5663 5663 5666 5669 5672 5673 5675 5677 5679 5682 5684 5686 5688 5690 5691 5693 5694 5695 5696 5697 5698 5699 5700 5700 5701 5702
5697 5695 5693 5690 5687 5685 5682 5680 5677 5675 5672 5670 5668 5665 5663 5661 5659 5657 5656 5656 5658 5662 5665 5667 5669 5671 5673 5675 5678 5680 5682 5684 5686 5688 5690 5692 5693 5694 5696 5697 5698 5699 5700
5695 5694 5692 5689 5686 5684 5680 5677 5675 5672 5670 5667 5664 5662 5659 5657 5655 5653 5651 5649 5649 5652 5655 5659 5661 5662 5665 5667 5669 5671 5674 5676 5679 5681 5683 5685 5687 5689 5691 5693 5695 5696 5698
5695 5693 5690 5687 5684 5682 5679 5675 5672 5670 5667 5664 5661 5658 5656 5653 5651 5649 5647 5644 5642 5643 5644 5648 5651 5653 5655 5657 5660 5662 5665 5668 5670 5673 5676 5678 5680 5683 5685 5688 5690 5692 5694
5693 5691 5688 5685 5683 5680 5677 5673 5670 5667 5664 5661 5658 5655 5652 5650 5647 5644 5642 5640 5637 5635 5636 5638 5640 5644 5645 5647 5650 5652 5655 5658 5661 5664 5667 5669 5672 5675 5678 5681 5684 5686 5689
5692 5689 5686 5683 5680 5677 5674 5671 5668 5665 5661 5658 5654 5651 5648 5646 5643 5640 5637 5635 5632 5630 5628 5630 5631 5633 5635 5637 5640 5642 5645 5649 5652 5655 5658 5661 5664 5667 5670 5673 5677 5680 5683
5690 5687 5684 5681 5678 5675 5671 5668 5665 5662 5658 5655 5652 5648 5645 5642 5639 5636 5633 5630 5627 5624 5623 5624 5623 5624 5625 5628 5630 5633 5635 5638 5642 5645 5648 5652 5656 5659 5663 5667 5670 5673 5677
5688 5685 5681 5678 5675 5672 5669 5665 5662 5659 5655 5652 5649 5645 5642 5639 5635 5631 5628 5625 5622 5620 5617 5617 5617 5616 5617 5618 5620 5622 5625 5628 5631 5635 5638 5642 5647 5651 5655 5659 5662 5666 5671
5685 5682 5679 5675 5673 5670 5667 5663 5659 5656 5652 5649 5645 5642 5638 5634 5630 5627 5623 5620 5617 5615 5612 5610 5610 5609 5609 5609 5610 5612 5615 5617 5621 5625 5628 5632 5637 5641 5646 5650 5655 5659 5664
5683 5679 5676 5673 5670 5667 5664 5660 5656 5653 5649 5646 5642 5638 5635 5631 5627 5623 5619 5616 5612 5609 5606 5603 5603 5602 5601 5600 5600 5602 5605 5607 5610 5614 5618 5622 5626 5630 5636 5641 5647 5652 5656
5680 5677 5673 5670 5667 5663 5661 5657 5653 5650 5645 5642 5638 5635 5631 5628 5624 5620 5616 5612 5607 5603 5600 5598 5597 5595 5594 5593 5593 5594 5596 5598 5601 5604 5608 5612 5616 5620 5624 5630 5636 5642 5648
5676 5673 5670 5667 5664 5661 5659 5655 5650 5646 5642 5638 5634 5631 5627 5624 5621 5617 5613 5609 5604 5599 5596 5593 5592 5590 5589 5587 5586 5586 5587 5588 5592 5595 5597 5601 5604 5609 5615 5620 5627 5633 5639
5673 5669 5666 5663 5660 5658 5655 5651 5647 5642 5638 5634 5631 5627 5623 5621 5617 5612 5608 5604 5601 5597 5593 5590 5588 5586 5584 5583 5581 5580 5579 5581 5584 5586 5586 5593 5596 5601 5606 5612 5618 5625 5631
5669 5666 5663 5660 5657 5655 5651 5647 5643 5638 5634 5631 5627 5623 5619 5616 5612 5607 5603 5599 5596 5592 5589 5586 5585 5583 5580 5578 5575 5575 5574 5574 5576 5577 5577 5583 5589 5593 5600 5605 5611 5617 5623
5666 5663 5660 5657 5653 5651 5648 5643 5638 5633 5630 5627 5624 5620 5615 5612 5609 5603 5597 5594 5591 5588 5585 5582 5580 5578 5575 5572 5569 5567 5567 5566 5571 5573 5572 5574 5582 5586 5592 5599 5605 5610 5616
5662 5659 5656 5653 5650 5648 5644 5639 5634 5629 5626 5624 5620 5616 5612 5608 5605 5598 5593 5589 5586 5584 5581 5578 5574 5572 5569 5567 5564 5563 5563 5563 5565 5568 5568 5568 5574 5577 5585 5592 5597 5601 5606